Flag for Poland Weather past 2 weeks in Radom, Poland

Now
62 °F

Passing clouds.


Feels Like: 62 °F
Forecast: 54 / 86 °F
Wind: 1 mph from Northeast

Location: Kielce

Current Time: Aug 29, 2015 at 11:12:13 PM

Latest Report: Aug 29, 2015 at 9:00 PM


Visibility: 9 mi

Pressure: 30.27 "Hg

Humidity: 83%

Dew point: 56 °F

Location of RadomLocation

Historic Weather in Radom — Graph

°F

Radom temperature yesterday

Maximum temperature yesterday: 90 °F (at 3:00 PM)
Minimum temperature yesterday: 53 °F (at 5:00 AM)
Average temperature yesterday: 73 °F

Past Weeks' High & Low Weather Summary

 TemperatureHumidityPressure
High90 °F (Aug 28, 3:00 PM)100% (Aug 25, 10:00 PM)30.34 "Hg (Aug 25, 10:00 PM)
Low49 °F (Aug 27, 5:00 AM)26% (Aug 19, 3:00 PM)29.74 "Hg (Aug 15, 5:00 PM)
Average68 °F56%30.05 "Hg
* Reported Aug 14 9:00 PM — Aug 29 9:00 PM, Radom, Weather by CustomWeather, © 2015

Note: Actual official high and low records may vary slightly from our data, if they occured in-between our weather recording intervals... More about our weather records

Advertising

Radom weather history for previous 24 hours

 ConditionsComfort  
Time TempWeatherWind HumidityBarometerVisibility
9:00 PM
Sat, Aug 29
62 °FPassing clouds.1 mph83%30.27 "Hg9 mi
8:00 PM67 °FPassing clouds.1 mph68%30.26 "Hg13 mi
7:00 PM72 °FPassing clouds.1 mph55%30.25 "Hg22 mi
6:00 PM74 °FPassing clouds.2 mph53%30.24 "Hg25 mi
5:00 PM74 °FScattered clouds.3 mph54%30.25 "Hg19 mi
4:00 PM75 °FScattered clouds.3 mph56%30.25 "Hg22 mi
2:00 PM72 °FPartly sunny.5 mph60%30.27 "Hg22 mi
11:00 AM66 °FSprinkles. Overcast.3 mph78%30.28 "Hg17 mi
10:00 AM65 °FOvercast.1 mph84%30.27 "Hg12 mi
7:00 AM64 °FFog.2 mph94%30.23 "Hg3 mi
6:00 AM65 °FLow clouds.1 mph94%30.22 "Hg2 mi
5:00 AM64 °FFog.1 mph96%30.20 "Hg2 mi
3:00 AM65 °FRain showers. Overcast.1 mph93%30.19 "Hg2 mi
2:00 AM66 °FSprinkles. Low clouds.2 mph87%30.17 "Hg15 mi
1:00 AM70 °FOvercast.2 mph72%30.15 "Hg22 mi
11:00 PM
Fri, Aug 28
71 °FPassing clouds.1 mph68%30.11 "Hg14 mi
Weather by CustomWeather, © 2015

See weather overviewHow to use our weather pages